Change the Weather History Date:

Tuesday, November 1, 2011

  Actual Average Record
Temperature  
Mean Temperature 42 °F 44 °F  
Max Temperature 55 °F 54 °F 78 °F (1950)
Min Temperature 28 °F 35 °F 22 °F (1964)
Degree Days  
Heating Degree Days 23 21  
Month to date heating degree days 23 21  
Since 1 July heating degree days 469 666  
Cooling Degree Days 0 0  
Month to date cooling degree days 0 0  
Year to date cooling degree days 794 598  
Moisture  
Dew Point 32 °F    
Average Humidity 73    
Maximum Humidity 100    
Minimum Humidity 46    
Precipitation  
Precipitation 0.00 in 0.11 in 1.11 in (1895)
Month to date precipitation 0.00 0.11  
Year to date precipitation 48.06 33.24  
Snow  
Snow 0.00 in 0.00 in 3.90 in (1951)
Month to date snowfall 0.0 0.0  
Since 1 July snowfall 5.4 T  
Since 1 September snowfall 5.4 T  
Snow Depth 0.00 in    
Sea Level Pressure  
Sea Level Pressure 30.35 in    
Wind  
Wind Speed 1 mph (NW)    
Max Wind Speed 6 mph    
Max Gust Speed 9 mph    
Visibility 9 miles    
Events Fog    
T = Trace of Precipitation, MM = Missing Value Source: NWS Daily Summary

Daily Weather History Graph

Daily Weather History Graph

Search for Another Location

Airport or City:

Trip Planner

Search our weather history database for the weather conditions in past years. The results will help you decide how hot, cold, wet, or windy it might be!

Date:

Astronomy

Nov. 01, 2011 Rise Set
Actual Time 7:28 AM EDT 5:48 PM EDT
Civil Twilight 6:59 AM EDT 6:17 PM EDT
Nautical Twilight 6:26 AM EDT 6:50 PM EDT
Astronomical Twilight 5:53 AM EDT 7:23 PM EDT
Moon 1:15 PM EDT (11/1) 11:26 PM EDT (11/1)
Length of Visible Light 11h 18m
Length of Day
10h 19m
Waxing Crescent, 39% of the Moon is Illuminated
Nov 1
Waxing Crescent
Nov 2
First Quarter
Nov 10
Full
Nov 18
Last Quarter
Nov 25
New

Hourly Weather History & Observations

Time (EDT) Temp. Windchill Dew Point Humidity Pressure Visibility Wind Dir Wind Speed Gust Speed Precip Events Conditions
12:51 AM 33.1 °F - 30.9 °F 92% 30.35 in 10.0 mi Calm Calm - N/A   Mostly Cloudy
1:51 AM 34.0 °F - 30.9 °F 89% 30.35 in 10.0 mi Calm Calm - N/A   Mostly Cloudy
2:51 AM 32.0 °F - 30.0 °F 92% 30.36 in 10.0 mi Calm Calm - N/A   Scattered Clouds
3:51 AM 30.9 °F - 28.9 °F 92% 30.35 in 10.0 mi Calm Calm - N/A   Partly Cloudy
4:51 AM 30.0 °F - 28.0 °F 92% 30.35 in 10.0 mi Calm Calm - N/A   Mostly Cloudy
4:59 AM 30.2 °F - 28.4 °F 93% 30.34 in 0.8 mi Calm Calm - N/A   Mostly Cloudy
5:06 AM 30.2 °F - 28.4 °F 93% 30.34 in 0.8 mi Calm Calm - N/A   Mostly Cloudy
5:11 AM 30.2 °F - 28.4 °F 93% 30.34 in 0.8 mi Calm Calm - N/A   Mostly Cloudy
5:32 AM 30.2 °F - 28.4 °F 93% 30.35 in 2.0 mi Calm Calm - N/A   Mostly Cloudy
5:40 AM 30.2 °F - 28.4 °F 93% 30.35 in 9.0 mi Calm Calm - N/A Fog Patches of Fog
5:51 AM 28.9 °F - 28.0 °F 96% 30.36 in 10.0 mi Calm Calm - N/A Fog Shallow Fog
6:51 AM 30.2 °F - 28.4 °F 93% 30.36 in 10.0 mi Calm Calm - N/A   Mostly Cloudy
7:51 AM 30.0 °F - 28.9 °F 96% 30.37 in 10.0 mi Calm Calm - N/A Fog Patches of Fog
8:29 AM 32.0 °F 28.7 °F 30.2 °F 93% 30.37 in 10.0 mi North 3.5 mph - N/A   Scattered Clouds
8:51 AM 33.1 °F 30.0 °F 30.9 °F 92% 30.38 in 10.0 mi NNW 3.5 mph - N/A   Scattered Clouds
9:51 AM 39.0 °F 36.8 °F 35.1 °F 86% 30.38 in 10.0 mi NNW 3.5 mph - N/A   Partly Cloudy
10:51 AM 44.1 °F 42.5 °F 36.0 °F 73% 30.37 in 10.0 mi WNW 3.5 mph - N/A   Partly Cloudy
11:51 AM 48.0 °F - 36.0 °F 63% 30.37 in 10.0 mi Calm Calm - N/A   Partly Cloudy
12:51 PM 51.1 °F - 37.9 °F 61% 30.35 in 10.0 mi Calm Calm - N/A   Partly Cloudy
1:51 PM 53.1 °F - 35.1 °F 50% 30.34 in 10.0 mi West 3.5 mph - N/A   Partly Cloudy
2:51 PM 55.0 °F - 36.0 °F 49% 30.32 in 10.0 mi Calm Calm - N/A   Partly Cloudy
3:51 PM 55.0 °F - 35.1 °F 47% 30.32 in 10.0 mi Calm Calm - N/A   Partly Cloudy
4:51 PM 53.1 °F - 34.0 °F 48% 30.32 in 10.0 mi Calm Calm - N/A   Partly Cloudy
5:51 PM 48.9 °F - 35.1 °F 59% 30.33 in 10.0 mi Calm Calm - N/A   Partly Cloudy
6:51 PM 43.0 °F - 35.1 °F 74% 30.34 in 10.0 mi Calm Calm - N/A   Clear
7:51 PM 39.9 °F - 35.1 °F 83% 30.35 in 10.0 mi Calm Calm - N/A   Clear
8:51 PM 39.0 °F - 34.0 °F 82% 30.35 in 10.0 mi Calm Calm - N/A   Clear
9:51 PM 37.0 °F - 33.1 °F 86% 30.37 in 10.0 mi Calm Calm - N/A   Clear
10:51 PM 35.1 °F - 33.1 °F 92% 30.37 in 10.0 mi Calm Calm - N/A   Clear
11:51 PM 35.6 °F - 32.0 °F 87% 30.35 in 10.0 mi Calm Calm - N/A   Clear